This is the latest recevied weather packets stored in our database for station/object CE1JFB-10. If no packets are shown the sender has not sent any weather packets the latest 10 day(s).
| Time | Temp. | Humidity | Pressure | Rain* | Wind** | Luminosity | Snow |
|---|---|---|---|---|---|---|---|
| 1777804250 | 21.67° C | 59% | 1013.4 hPa | - | - | - | - |
| 1777800650 | 21.67° C | 59% | 1013.5 hPa | - | - | - | - |
| 1777797049 | 21.67° C | 58% | 1013.5 hPa | - | - | - | - |
| 1777793449 | 21.67° C | 58% | 1013.4 hPa | - | - | - | - |
| 1777789849 | 22.22° C | 57% | 1013.9 hPa | - | - | - | - |
| 1777786249 | 22.22° C | 56% | 1014.4 hPa | - | - | - | - |
| 1777782649 | 22.78° C | 55% | 1014.8 hPa | - | - | - | - |
| 1777779049 | 22.78° C | 55% | 1015.1 hPa | - | - | - | - |
| 1777775449 | 24.44° C | 51% | 1014.9 hPa | - | - | - | - |
| 1777771849 | 24.44° C | 51% | 1014.5 hPa | - | - | - | - |
| 1777768249 | 23.33° C | 53% | 1013.9 hPa | - | - | - | - |
| 1777764648 | 22.78° C | 54% | 1013.4 hPa | - | - | - | - |
| 1777761048 | 22.78° C | 54% | 1013 hPa | - | - | - | - |
| 1777757448 | 23.33° C | 53% | 1012.2 hPa | - | - | - | - |
| 1777753848 | 23.33° C | 53% | 1011.7 hPa | - | - | - | - |
| 1777750248 | 23.89° C | 51% | 1011.4 hPa | - | - | - | - |
| 1777746648 | 23.89° C | 51% | 1011.4 hPa | - | - | - | - |
| 1777739503 | 24.44° C | 50% | 1012.4 hPa | - | - | - | - |
| 1777735903 | 23.33° C | 54% | 1013.2 hPa | - | - | - | - |
| 1777732303 | 22.78° C | 55% | 1013.4 hPa | - | - | - | - |
| 1777728703 | 22.78° C | 57% | 1013.3 hPa | - | - | - | - |
| 1777725102 | 22.22° C | 59% | 1012.8 hPa | - | - | - | - |
| 1777721502 | 22.22° C | 59% | 1012.2 hPa | - | - | - | - |
| 1777717902 | 22.22° C | 59% | 1011.6 hPa | - | - | - | - |
| 1777714302 | 22.22° C | 59% | 1011.2 hPa | - | - | - | - |
* Rain since midnight (hover to see other rain measurements)
** Current wind speed in m/s (hover to see current wind gust speed)